San Antonio, TX

1:00 PM CST on December 06, 2016 (GMT -0600)
Stinson Municipal

Weather History for KSSF - March, 2013

Change the Weather History Date:

Friday, March 29, 2013

  Actual Average Record
Temperature  
Mean Temperature 67 °F -  
Max Temperature 80 °F 71 °F 82 °F (2006)
Min Temperature 55 °F 53 °F 33 °F (1997)
Cooling Degree Days 2    
Growing Degree Days 17 (Base 50)    
Moisture  
Dew Point 57 °F    
Average Humidity 73    
Maximum Humidity 100    
Minimum Humidity 40    
Precipitation  
Precipitation 0.00 in - - ()
Sea Level Pressure  
Sea Level Pressure 30.10 in    
Wind  
Wind Speed 6 mph (SSE)    
Max Wind Speed 15 mph    
Max Gust Speed 21 mph    
Visibility 9 miles    
Events      
Averages and records for this station are not official NWS values.
T = Trace of Precipitation, MM = Missing Value Source: NWS Daily Summary

Daily Weather History Graph

Daily Weather History Graph

Search for Another Location

Airport or City:

Trip Planner

Search our weather history database for the weather conditions in past years. The results will help you decide how hot, cold, wet, or windy it might be!

Date:

Astronomy

Mar. 29, 2013 Rise Set
Actual Time 7:26 AM CDT 7:50 PM CDT
Civil Twilight 7:02 AM CDT 8:14 PM CDT
Nautical Twilight 6:35 AM CDT 8:42 PM CDT
Astronomical Twilight 6:06 AM CDT 9:10 PM CDT
Moon 10:36 PM CDT (3/29) 8:50 AM CDT (3/29)
Length of Visible Light 13h 11m
Length of Day
12h 24m
Waning Gibbous, 93% of the Moon is Illuminated
Mar 29
Waning Gibbous
Apr 2
Last Quarter
Apr 10
New
Apr 18
First Quarter
Apr 25
Full

Hourly Weather History & Observations

Time (CDT) Temp. Dew Point Humidity Pressure Visibility Wind Dir Wind Speed Gust Speed Precip Events Conditions
12:53 AM 61.0 °F 57.9 °F 90% 30.16 in 10.0 mi SSE 3.5 mph - N/A   Mostly Cloudy
1:53 AM 62.1 °F 57.9 °F 86% 30.15 in 10.0 mi Calm Calm - N/A   Overcast
2:53 AM 61.0 °F 57.9 °F 90% 30.14 in 10.0 mi SE 3.5 mph - N/A   Overcast
3:53 AM 61.0 °F 57.9 °F 90% 30.13 in 10.0 mi SSE 3.5 mph - N/A   Overcast
4:53 AM 59.0 °F 57.9 °F 96% 30.11 in 10.0 mi SE 5.8 mph - N/A   Mostly Cloudy
5:53 AM 59.0 °F 57.9 °F 96% 30.11 in 10.0 mi East 3.5 mph - N/A   Mostly Cloudy
6:53 AM 57.0 °F 55.9 °F 96% 30.12 in 7.0 mi Calm Calm - N/A   Mostly Cloudy
7:04 AM 55.4 °F 55.4 °F 100% 30.14 in 5.0 mi Calm Calm - N/A   Overcast
7:14 AM 57.2 °F 57.2 °F 100% 30.14 in 7.0 mi Calm Calm - N/A   Overcast
7:24 AM 57.2 °F 57.2 °F 100% 30.14 in 7.0 mi ESE 3.5 mph - N/A   Overcast
7:53 AM 59.0 °F 57.9 °F 96% 30.14 in 6.0 mi SE 3.5 mph - N/A   Overcast
8:53 AM 62.1 °F 59.0 °F 90% 30.14 in 10.0 mi SSE 8.1 mph - N/A   Mostly Cloudy
9:18 AM 64.4 °F 59.0 °F 83% 30.15 in 10.0 mi SE 8.1 mph - N/A   Partly Cloudy
9:48 AM 69.8 °F 59.0 °F 68% 30.15 in 10.0 mi SSE 12.7 mph - N/A   Mostly Cloudy
9:53 AM 68.0 °F 59.0 °F 73% 30.14 in 10.0 mi South 10.4 mph - N/A   Mostly Cloudy
10:53 AM 71.1 °F 59.0 °F 66% 30.14 in 10.0 mi SSE 12.7 mph - N/A   Mostly Cloudy
11:10 AM 73.4 °F 57.2 °F 57% 30.16 in 10.0 mi SSE 12.7 mph 19.6 mph N/A   Scattered Clouds
11:53 AM 73.9 °F 57.0 °F 55% 30.14 in 10.0 mi South 12.7 mph - N/A   Overcast
12:53 PM 77.0 °F 55.0 °F 47% 30.11 in 10.0 mi South 12.7 mph 20.7 mph N/A   Overcast
1:53 PM 75.9 °F 54.0 °F 46% 30.09 in 10.0 mi South 15.0 mph - N/A   Overcast
2:53 PM 75.9 °F 55.0 °F 48% 30.06 in 10.0 mi SSE 12.7 mph - N/A   Overcast
3:53 PM 78.1 °F 54.0 °F 43% 30.04 in 10.0 mi South 10.4 mph 19.6 mph N/A   Overcast
4:53 PM 79.0 °F 53.1 °F 40% 30.01 in 10.0 mi SSE 11.5 mph 20.7 mph N/A   Overcast
5:53 PM 77.0 °F 55.0 °F 47% 30.02 in 10.0 mi SSE 13.8 mph - N/A   Overcast
6:53 PM 75.0 °F 57.0 °F 53% 30.02 in 10.0 mi SE 9.2 mph - N/A   Partly Cloudy
7:53 PM 73.9 °F 57.9 °F 57% 30.03 in 10.0 mi SSE 9.2 mph - N/A   Clear
8:53 PM 72.0 °F 57.0 °F 59% 30.04 in 10.0 mi SE 10.4 mph - N/A   Clear
9:53 PM 70.0 °F 59.0 °F 68% 30.05 in 10.0 mi SE 11.5 mph - N/A   Clear
10:53 PM 68.0 °F 61.0 °F 78% 30.06 in 10.0 mi SE 13.8 mph 20.7 mph N/A   Clear
11:53 PM 66.9 °F 61.0 °F 81% 30.07 in 10.0 mi SE 10.4 mph - N/A   Partly Cloudy